Rechercher aéroport 
image banner adimage banner ad
image banner ad

DAUK - Touggourt / Sidi Mahdi

Situé à , Algeria

ICAO - DAUK, IATA - TGR

Données fournies par Airmate  

Information générale

Coordonnées: N33°3'36" E6°5'14"
Élévation : 278 feet MSL.
 
Voir autres Aéroports à Ouargla Province

Données opérationnelles

Accessible au public
Heure actuelle UTC:
Heure actuelle locale:
Météo
METAR: DAUK 010000Z 16006KT CAVOK 17/03 Q1023
TAF: TAF DAUK 312300Z 0100/0109 VRB02KT CAVOK
Voir NOTAMs / SUP AIP / TFR affectant cet aéroport [VIEW]
Fréquences de communication: [VIEW]

Pistes:

Identifiant RWYQFULongueur (ft)Largeur (ft)SurfaceLDA (ft)
019843148ASP
19189°9843148

Coordonnées de l'aéroport

Adresse: Algeria

Vue satellite de DAUK